Wind_Speed
16 17 17 17 17 17 16 17 17 18 18 18 18 18 19 19 20 22 22 21 20 21 20 19 22 26 29 34 36 35 33 33 34 36 37 37 36 36 36 36 39 41 38 35 34 34 33 33 32 28 24 20 19 20 21 22 23 24 24 25 26 27 28 30 31 32 35 37 36 39 41 43 41 40 44 46 46 49 49 48 45 43 45 45 42 42 43 38
16 17 17 17 17 17 16 17 18 18 18 18 18 19 19 20 20 22 22 20 19 20 19 19 22 25 29 33 35 34 32 32 34 35 36 36 35 35 34 35 39 39 36 33 32 31 31 31 28 23 19 17 16 16 18 20 21 22 22 23 25 27 28 30 30 30 33 35 36 39 41 41 40 40 45 48 50 52 52 50 48 45 46 46 45 42 41 39
16 17 17 17 17 17 16 17 18 19 19 18 19 19 19 20 21 21 22 20 19 19 19 19 22 25 29 33 34 33 31 31 33 35 35 35 34 33 33 36 39 37 34 32 30 29 28 28 24 19 16 13 13 12 16 19 20 21 22 23 25 27 28 28 28 29 31 35 38 38 39 39 39 42 48 50 49 53 52 49 49 48 47 46 45 42 38 37
16 17 17 18 17 17 16 17 18 19 19 19 19 19 20 21 21 21 21 20 19 19 19 20 22 25 29 32 33 32 30 30 33 34 34 34 34 32 32 36 39 36 33 30 28 27 25 24 21 16 13 11 10 9 14 18 19 20 23 23 24 25 26 27 27 30 33 36 38 36 37 39 42 41 43 48 45 49 52 48 48 47 47 46 43 40 36 35
16 17 17 17 17 17 16 17 18 19 19 19 19 19 20 21 22 22 21 20 19 19 19 20 22 25 29 32 33 32 30 30 32 34 34 35 33 32 32 36 38 35 32 29 27 24 22 22 19 15 12 9 7 8 12 17 20 22 23 22 23 23 25 27 27 30 33 38 36 35 37 41 49 35 30 44 40 40 51 51 48 43 45 47 42 37 35 34
16 16 17 17 17 16 16 17 18 19 19 19 19 19 20 21 22 22 22 20 19 19 19 20 22 25 29 31 33 32 31 31 32 34 34 34 33 32 33 35 36 34 30 27 26 23 20 20 18 15 11 7 4 6 10 14 19 21 21 21 21 22 25 27 27 29 33 38 33 35 38 43 53 32 24 41 35 33 46 51 49 43 44 48 45 40 37 35
16 16 16 16 16 16 16 17 18 19 19 19 19 19 20 21 22 22 22 21 19 18 19 20 22 26 29 31 32 32 31 32 32 33 34 34 33 33 33 34 35 33 29 27 26 22 19 18 17 17 14 8 3 4 7 10 14 16 18 20 21 22 25 26 26 28 32 36 32 35 38 44 50 30 24 38 30 31 36 40 44 39 40 45 47 43 39 38
15 16 16 16 16 16 16 17 18 19 19 20 20 20 20 21 22 22 23 21 19 18 18 20 22 26 28 29 31 32 32 32 32 32 33 34 34 34 32 32 34 32 28 27 26 22 19 18 17 18 16 11 4 2 5 8 11 15 19 22 22 21 24 27 26 28 32 36 34 34 37 45 45 26 28 36 27 34 36 33 37 35 36 41 43 41 40 41
15 15 15 15 15 15 16 16 18 19 19 20 20 20 20 21 22 22 23 21 19 18 18 20 22 25 27 28 30 31 31 32 32 32 33 36 35 34 32 31 32 31 28 26 25 22 19 18 17 18 17 12 7 1 4 8 12 16 20 22 21 19 23 26 25 27 31 36 35 34 36 44 41 26 33 40 29 35 37 29 29 31 32 34 39 38 37 40
15 15 15 14 14 15 15 16 17 18 19 19 20 20 20 21 22 22 22 21 19 17 17 20 22 24 26 27 28 29 30 31 32 32 34 36 35 34 33 31 30 31 28 25 24 23 21 18 17 17 15 10 8 4 4 9 13 17 19 21 20 17 20 23 23 25 29 35 32 28 36 42 39 30 35 44 34 31 33 28 21 23 28 27 30 31 31 37
14 15 14 14 14 14 15 16 17 18 18 19 20 20 20 20 22 22 22 21 19 17 17 19 22 23 25 26 26 29 29 30 31 32 34 37 36 34 33 31 29 30 30 26 25 23 22 19 17 16 13 9 7 5 5 6 9 15 18 19 17 15 17 19 20 24 30 32 23 24 38 38 34 33 35 43 39 29 31 31 21 17 26 27 23 23 25 32
14 14 14 13 13 13 14 15 16 17 18 19 20 20 20 20 21 22 22 21 18 17 16 18 21 23 24 25 25 27 28 29 30 30 33 35 36 35 33 32 30 30 32 30 27 24 22 20 17 15 13 11 10 7 5 4 6 11 14 13 14 15 17 17 18 22 28 27 17 23 40 34 24 32 35 38 38 32 28 31 27 18 23 27 23 21 21 26
13 14 14 13 13 13 13 14 15 17 17 18 19 20 20 21 21 22 22 20 18 17 16 17 19 21 24 24 25 26 26 28 30 29 30 33 35 35 33 32 30 31 33 32 28 23 21 21 18 15 13 12 12 11 7 5 5 8 10 10 14 16 19 21 17 15 22 25 15 22 40 32 21 26 32 35 36 36 31 29 30 23 22 24 23 23 22 24
13 14 14 13 12 12 13 13 15 16 17 18 19 20 20 21 21 21 21 20 18 16 15 16 18 20 22 23 24 25 25 27 29 29 30 31 32 32 31 31 30 31 33 31 28 24 21 21 19 16 14 13 11 10 9 8 7 8 9 10 14 16 17 18 13 12 17 23 18 23 33 29 22 23 27 31 33 38 37 30 27 26 25 23 21 24 26 25
12 13 13 12 12 12 12 13 14 15 16 17 18 19 20 21 21 21 21 20 18 15 15 15 16 18 20 20 22 23 24 26 28 28 28 29 30 30 30 31 32 32 32 31 29 26 22 21 20 17 15 13 11 11 11 11 10 9 10 13 13 9 9 12 11 9 10 17 23 26 26 23 21 20 22 27 30 37 42 34 26 25 26 25 23 23 25 25
12 13 13 12 11 11 12 13 13 15 16 16 18 19 20 20 20 20 19 19 17 14 13 14 15 17 17 17 19 21 23 25 25 26 26 27 28 29 30 31 32 32 31 30 29 27 24 22 21 18 16 14 12 13 13 14 14 11 13 14 8 2 4 8 8 8 7 14 24 27 23 21 19 14 15 22 27 33 40 35 26 24 26 26 24 23 23 23
11 12 12 11 11 11 12 12 13 15 15 16 17 18 19 19 20 20 18 18 16 13 12 14 15 16 15 15 17 20 24 24 23 25 26 25 26 28 30 30 31 31 31 30 29 29 26 24 22 19 18 16 14 14 14 14 13 12 12 10 5 4 6 8 9 10 9 12 21 27 26 24 20 13 10 17 24 28 34 35 29 26 27 28 26 25 25 22
10 11 12 11 11 11 11 12 13 14 15 15 16 18 18 19 20 19 18 16 15 13 13 13 14 16 16 15 17 22 25 25 25 25 25 26 26 28 29 29 28 28 29 30 29 29 28 25 22 19 18 18 17 16 15 13 12 11 10 8 9 9 9 9 11 11 11 12 15 21 27 27 25 20 11 12 20 25 30 34 32 29 30 30 28 26 26 22
10 11 11 11 10 10 11 12 13 14 15 15 16 17 18 19 19 19 17 15 13 12 12 13 13 16 17 17 18 21 25 27 27 26 25 26 27 28 28 28 28 27 27 28 28 28 28 26 23 20 18 17 17 17 16 15 14 12 11 10 11 11 10 12 11 11 11 12 12 15 20 23 26 24 16 15 22 25 28 31 30 30 32 33 30 28 26 22
9 10 11 11 10 10 11 12 13 14 14 15 15 16 17 18 18 19 18 14 12 10 11 12 13 15 17 16 17 19 24 28 27 25 24 25 27 27 27 27 26 26 27 27 27 26 25 25 24 22 19 17 15 15 15 15 14 13 11 10 10 9 11 12 11 12 11 12 13 13 15 19 22 24 21 20 23 24 24 26 28 27 28 30 29 28 27 23
9 10 11 11 11 10 11 12 13 14 15 15 15 15 17 17 17 18 16 12 11 11 10 11 11 12 14 15 16 18 23 28 27 25 25 27 27 27 27 25 24 26 27 27 27 25 23 23 23 22 20 18 16 13 13 13 13 11 10 9 10 9 10 11 11 12 12 12 13 13 16 18 19 22 23 23 23 23 21 23 26 23 20 27 28 27 28 25
9 10 10 11 11 10 11 12 13 14 15 15 15 15 16 17 16 15 14 10 9 10 10 11 10 9 12 13 16 20 25 28 26 25 25 27 28 27 26 24 24 25 26 26 26 23 21 21 22 22 20 19 18 15 13 12 12 11 10 9 10 10 10 11 12 12 12 13 12 12 17 18 17 18 21 23 22 21 20 19 23 20 16 26 28 27 26 22
9 10 10 11 11 11 11 12 13 14 15 15 15 15 16 16 16 15 13 10 9 10 10 11 11 9 10 14 19 22 25 25 24 24 25 26 28 28 26 24 23 24 24 23 23 21 19 18 20 22 21 19 18 18 16 14 12 11 10 10 11 11 11 11 12 12 13 13 12 12 14 15 15 15 16 19 19 19 17 14 19 20 18 24 25 23 21 18
9 10 11 11 12 12 12 13 14 15 15 16 15 16 15 15 16 14 12 10 9 11 11 11 13 12 13 15 19 21 21 20 21 22 24 25 27 28 27 26 24 22 22 21 20 20 20 19 18 18 20 20 19 19 18 16 14 12 10 10 12 11 12 13 13 14 15 14 14 14 14 14 15 15 15 17 18 19 15 11 17 22 22 24 23 20 19 18
10 10 11 12 12 13 13 14 15 15 16 16 15 15 15 14 15 13 11 10 8 10 11 10 11 14 16 16 17 17 17 18 20 21 22 23 24 26 27 28 25 21 20 19 19 20 20 20 18 16 16 16 17 19 19 18 16 14 13 13 14 14 14 15 16 17 16 17 17 17 16 15 16 16 16 17 19 20 15 12 20 25 26 25 22 20 21 18
11 11 12 13 13 14 15 14 15 16 17 16 15 14 14 14 14 12 10 9 7 8 9 8 9 11 11 12 13 14 13 16 19 19 21 23 23 24 26 27 25 21 18 18 19 19 18 18 18 17 15 12 13 16 18 17 16 16 16 15 15 15 14 15 18 19 17 17 18 17 16 16 17 17 17 19 19 17 16 19 22 25 27 26 21 20 20 17
12 12 12 14 14 15 16 15 16 17 17 16 16 14 13 14 14 12 10 9 7 7 7 7 7 8 8 9 11 11 11 13 15 16 20 23 22 22 24 26 26 21 16 16 17 17 17 16 17 18 18 14 13 15 16 16 16 16 15 15 15 14 13 15 18 18 17 17 16 15 15 16 17 18 19 19 18 17 20 22 21 22 24 22 19 18 17 16
12 13 13 14 15 16 16 16 16 17 17 16 15 13 13 13 13 12 10 8 8 9 8 7 6 7 8 9 10 11 12 12 13 15 17 20 21 20 21 24 25 22 17 16 15 15 15 15 15 17 18 17 17 17 16 16 15 14 13 13 14 15 14 15 17 17 15 15 13 13 14 14 15 18 19 19 19 20 22 22 20 20 20 19 18 17 17 18
13 14 14 15 15 16 17 17 17 17 17 16 14 12 12 12 12 11 10 9 8 9 9 8 7 6 6 8 9 11 13 13 14 16 17 19 19 18 19 21 22 22 21 18 16 13 12 14 14 15 16 17 17 16 15 14 13 12 11 11 12 13 12 12 13 13 12 11 10 11 12 12 12 14 17 17 18 19 21 21 20 19 19 21 21 19 18 16
14 14 15 16 16 17 17 17 18 18 17 16 14 12 12 12 12 11 10 9 9 9 9 9 8 8 8 9 9 11 12 13 14 16 17 18 18 17 18 19 20 22 22 20 19 15 10 11 13 13 13 15 15 14 12 11 11 11 10 10 11 12 11 10 11 11 11 10 9 10 10 10 10 12 14 14 15 17 19 18 18 18 19 19 18 16 14 10
15 15 16 16 16 17 18 17 17 17 17 15 13 12 12 12 12 12 10 9 9 10 10 9 9 9 10 9 9 10 11 12 13 15 17 17 17 16 17 18 19 20 19 19 21 18 12 9 10 11 11 12 12 12 11 10 11 11 12 11 11 10 9 9 10 10 9 9 9 9 9 10 10 12 15 16 15 17 16 15 16 15 13 11 9 8 8 8
16 16 17 17 17 17 17 18 17 17 16 14 13 13 13 13 13 13 11 9 10 11 9 9 9 9 9 8 7 8 10 11 12 13 14 15 16 16 16 16 17 17 17 18 20 20 15 10 7 8 8 8 9 9 9 9 9 11 12 11 11 10 9 9 9 7 7 8 8 9 10 10 10 12 15 16 15 14 13 13 13 11 9 9 8 8 9 9
17 17 18 18 17 17 17 17 17 16 15 13 12 13 13 13 13 13 12 10 10 10 8 9 11 9 8 8 7 7 8 9 11 11 11 12 14 15 14 14 15 14 15 17 19 19 17 13 9 8 7 6 7 7 6 7 8 11 11 11 10 10 10 9 9 8 9 9 7 9 10 9 9 12 14 14 12 11 12 13 13 11 11 11 11 12 12 11
18 18 18 18 18 17 17 17 16 15 14 12 12 13 14 14 14 14 14 11 10 9 7 10 12 9 9 8 6 5 6 8 10 11 11 10 10 11 12 13 12 13 13 14 16 17 17 15 12 11 9 6 5 7 7 7 9 10 10 10 9 9 9 9 10 11 10 9 7 9 9 8 9 10 12 14 13 11 12 13 13 12 13 13 14 14 13 13
18 18 19 19 18 18 17 16 16 14 13 12 12 13 14 15 15 16 15 13 11 9 8 10 11 10 11 10 7 5 5 7 8 8 10 10 8 8 10 10 8 10 12 11 13 16 16 15 14 12 11 9 6 7 8 8 9 9 8 9 9 9 8 8 9 11 10 9 9 10 11 11 10 10 12 14 15 14 12 13 14 14 15 16 16 15 13 12
19 19 19 19 18 18 17 15 14 13 13 13 13 13 15 16 16 17 16 15 13 10 8 9 10 10 11 10 8 6 4 5 7 7 9 11 10 8 8 8 6 7 10 10 11 15 15 14 13 11 10 9 6 7 8 8 7 7 7 8 8 7 8 8 9 9 9 10 10 10 13 14 11 11 13 14 15 15 13 11 12 13 15 15 13 11 10 10
19 19 19 18 18 18 17 14 13 12 13 14 13 14 16 17 16 17 17 17 15 10 7 8 9 10 10 10 9 7 5 5 7 7 9 10 11 9 8 8 8 7 9 9 10 13 13 12 13 13 11 9 7 8 8 6 6 6 6 6 5 6 7 8 9 9 11 14 14 13 14 16 14 14 15 13 14 14 11 9 8 8 10 10 8 6 5 7
19 20 19 18 18 17 16 14 12 12 14 15 14 15 18 18 17 18 17 17 15 12 8 8 9 9 9 9 9 7 6 6 6 7 7 8 9 9 8 8 9 8 7 8 9 11 11 10 11 13 12 9 8 8 7 5 5 4 4 4 5 6 8 9 9 10 11 13 14 15 15 14 14 14 14 13 13 13 11 10 9 8 7 7 7 6 4 5
19 20 19 18 18 18 16 14 12 12 15 16 15 17 19 19 18 19 18 17 16 13 10 9 9 9 8 9 9 7 5 7 7 7 7 7 6 8 9 8 9 8 6 5 7 8 8 7 8 9 10 9 7 8 8 6 6 6 7 9 9 8 9 10 9 11 10 9 9 12 15 15 14 14 14 14 14 14 13 12 11 9 9 8 8 8 7 8
19 19 20 19 18 17 17 15 13 13 14 16 17 18 18 18 19 20 21 20 17 12 11 10 8 8 8 8 8 7 6 8 9 7 7 7 6 7 8 7 7 8 6 4 4 5 4 6 7 6 7 9 7 8 9 8 9 10 12 12 9 7 8 10 10 11 11 9 8 9 11 14 15 14 14 15 14 14 15 15 13 12 11 10 9 8 7 7
20 19 20 20 18 17 18 16 14 14 15 16 17 17 16 17 19 20 22 23 19 13 13 13 9 6 7 7 7 8 7 8 9 8 7 8 7 7 8 6 4 6 7 6 5 5 4 6 7 6 6 8 6 7 9 9 9 9 9 9 8 6 8 10 10 10 10 11 10 8 8 11 13 12 13 14 14 14 14 15 14 13 12 11 9 9 8 7
21 20 20 21 19 18 19 18 16 17 17 16 16 16 16 17 19 19 20 21 19 16 15 14 10 7 6 6 6 7 7 8 9 8 6 7 8 8 10 8 4 3 5 6 5 5 5 5 4 5 6 6 5 6 7 8 9 8 8 8 8 9 10 11 11 9 8 10 11 10 8 10 12 12 12 13 13 13 12 12 13 12 11 10 9 8 7 7
22 20 20 20 19 19 20 20 18 18 18 16 16 17 18 19 21 21 21 20 18 18 17 15 12 9 7 7 7 7 8 8 9 9 7 8 8 8 9 9 5 3 3 4 4 4 4 4 3 3 4 3 3 6 5 6 7 7 8 8 10 12 11 11 11 11 9 9 11 12 10 11 13 13 13 14 13 13 11 11 12 12 10 8 7 6 6 6
22 20 19 19 19 20 22 21 19 19 20 19 18 19 20 21 22 22 21 19 16 16 17 15 12 10 9 9 8 8 9 9 9 9 8 8 7 6 8 8 5 3 3 3 4 4 3 3 3 2 1 2 1 3 4 4 4 4 6 7 10 14 13 10 10 11 9 7 9 12 11 10 11 14 14 14 14 13 12 10 9 10 9 7 6 6 5 5
23 20 19 19 20 21 22 22 21 21 21 21 20 20 20 22 22 20 20 19 15 15 17 16 12 11 10 9 9 9 9 8 9 9 9 9 8 7 9 8 6 6 5 4 4 4 4 4 5 4 2 2 3 2 2 2 3 3 5 7 9 13 13 12 11 9 8 6 7 11 11 7 9 13 13 12 12 11 10 9 8 8 7 7 6 5 5 4
24 20 19 20 22 22 22 21 21 22 23 23 22 21 22 23 22 19 19 20 18 17 18 17 13 11 10 8 8 9 8 8 9 10 9 10 10 10 10 8 8 9 9 6 5 5 5 6 7 6 3 3 4 4 2 2 2 2 4 5 8 10 10 10 11 9 8 6 5 7 8 8 9 11 11 10 9 9 8 8 8 8 7 6 6 5 4 4
23 20 19 21 22 22 21 20 21 22 22 23 23 23 23 22 21 19 19 21 20 19 19 16 13 12 11 10 8 8 8 9 9 10 10 10 10 11 11 9 9 11 11 9 7 6 7 8 9 8 5 3 5 5 2 2 3 1 3 3 5 8 8 7 8 8 7 7 6 5 6 7 9 9 9 10 9 8 8 8 7 7 6 5 5 4 4 3
23 20 20 21 22 22 22 20 20 21 20 20 22 23 23 22 22 21 21 21 21 20 19 17 15 14 14 12 10 9 9 9 10 10 10 10 11 12 11 11 11 11 11 11 9 8 8 10 11 10 6 4 5 6 5 4 4 3 3 5 5 6 7 6 6 7 6 6 6 7 6 7 8 8 8 8 7 7 8 7 7 6 5 4 3 2 2 2
22 21 21 21 21 22 22 21 21 20 19 18 20 21 22 22 22 21 21 21 21 20 19 19 17 16 15 12 11 10 10 10 11 11 10 11 12 13 13 12 11 10 11 12 11 10 10 11 12 11 7 6 6 7 7 6 6 4 3 5 5 5 6 6 5 6 6 5 6 8 6 5 6 6 5 6 7 7 6 6 5 4 4 4 3 3 3 3
22 22 21 22 22 22 22 22 22 19 17 17 19 19 19 20 21 20 20 21 20 19 18 19 18 16 14 13 11 11 11 11 12 12 12 11 11 12 13 13 12 10 11 12 12 11 11 12 13 12 9 7 7 7 7 6 5 4 3 6 6 6 6 6 5 6 6 5 6 7 7 5 5 5 4 4 5 6 5 4 3 3 4 4 4 3 3 3
22 22 22 23 23 23 23 23 21 18 16 17 18 19 19 19 19 19 19 20 20 18 18 20 19 16 15 13 12 12 12 12 12 12 13 13 13 13 12 11 12 12 12 13 13 13 13 12 13 13 11 9 9 8 7 6 5 2 2 4 5 6 6 6 6 7 8 8 8 8 7 6 6 5 5 5 5 5 5 3 3 3 4 5 4 4 4 5
22 22 23 23 23 23 23 22 19 17 17 17 17 18 19 19 18 17 18 20 21 19 19 19 18 16 15 14 14 13 12 12 12 12 13 14 15 15 13 12 13 13 12 12 13 15 15 14 14 14 12 11 11 9 8 8 7 5 2 1 2 4 6 7 8 10 11 11 10 9 8 7 7 7 7 6 6 6 5 4 4 5 6 6 6 7 8 9
Wind_Direction
320 322 324 325 325 326 326 327 328 327 327 326 326 324 322 322 321 323 325 324 322 323 327 330 331 333 336 338 339 339 337 336 338 338 336 336 338 335 334 334 332 331 331 331 329 327 327 324 317 308 297 287 276 263 249 237 228 228 228 227 225 219 216 214 212 213 210 208 209 207 207 205 201 198 193 193 198 198 201 203 203 207 209 210 214 218 221 226
320 323 325 325 326 327 328 328 329 329 328 328 327 325 324 323 321 324 326 325 324 324 327 329 331 333 336 338 340 340 339 339 340 340 338 340 342 340 339 338 336 336 337 335 332 331 330 326 322 313 301 289 279 260 244 232 223 223 221 221 220 214 212 210 210 212 208 205 203 204 206 202 197 195 191 195 203 200 200 202 203 206 208 211 214 216 219 224
320 323 325 326 326 328 329 330 330 330 330 328 328 326 325 322 321 325 327 325 324 326 327 328 331 334 337 339 341 341 341 342 343 342 341 344 347 346 343 342 341 341 341 338 334 336 335 330 327 319 310 294 281 258 238 225 218 218 214 214 215 212 210 207 208 207 203 201 200 201 202 199 194 191 191 199 206 202 198 201 204 206 209 211 214 215 215 219
320 323 325 326 327 328 330 331 331 331 330 329 328 326 325 321 321 326 327 325 326 328 328 328 333 336 339 341 343 343 342 344 345 344 344 347 351 350 346 347 346 344 344 343 339 341 341 338 332 325 319 302 286 257 235 222 212 212 211 211 209 209 206 204 205 202 200 196 197 197 194 195 190 187 197 205 207 204 200 200 204 209 211 211 210 211 212 215
321 323 324 325 326 328 330 331 331 332 331 329 328 327 325 321 321 326 328 326 327 330 330 331 336 339 342 344 345 344 342 344 346 346 347 350 353 352 351 352 350 348 347 346 346 346 348 346 341 337 333 318 293 249 234 221 210 207 208 207 204 204 200 200 200 199 198 192 193 193 189 190 186 188 208 205 202 203 202 200 201 208 211 210 210 211 211 213
321 322 323 324 326 328 330 331 331 332 331 329 328 327 324 321 321 325 328 328 329 333 332 333 338 343 345 347 347 346 344 344 347 349 350 350 353 355 356 355 352 351 348 347 350 351 353 354 352 352 354 347 312 241 232 219 211 207 206 204 199 196 196 197 197 197 196 191 191 190 187 187 188 198 207 193 192 197 201 203 202 205 206 208 211 215 215 213
320 320 321 322 324 327 329 330 331 332 331 330 329 328 325 321 321 325 329 330 331 334 334 335 341 345 348 349 349 349 346 345 348 352 350 350 354 357 358 358 356 353 350 351 354 354 355 360 3 5 10 12 355 236 227 215 210 207 205 202 193 190 194 194 193 195 193 189 190 187 187 188 191 207 199 185 189 190 194 203 207 209 208 210 212 215 218 217
319 318 319 321 323 326 328 330 330 331 331 330 329 328 326 323 323 326 329 332 333 334 335 336 342 346 349 352 351 350 348 347 349 352 351 351 355 358 358 360 1 357 354 357 359 357 354 359 6 11 18 23 19 233 213 203 202 200 200 197 189 186 189 191 192 193 189 187 186 186 189 190 194 210 194 182 180 178 179 187 199 206 209 215 216 216 221 223
317 316 317 319 322 325 327 329 330 331 332 330 329 328 327 324 324 327 331 333 334 334 335 336 342 347 350 354 353 352 350 349 350 352 355 357 358 356 355 359 5 2 359 2 1 359 358 0 3 6 17 31 42 71 191 184 187 192 195 193 186 184 188 191 192 189 190 186 182 186 191 192 200 211 192 184 175 173 176 176 185 197 202 212 215 217 222 225
315 314 315 317 321 324 326 328 329 331 332 330 330 329 328 326 326 329 332 336 335 334 334 337 343 347 352 355 354 353 352 352 352 353 0 7 5 359 354 357 6 8 7 6 2 0 4 7 6 7 14 34 55 82 154 170 180 189 192 186 181 185 190 191 188 187 190 184 182 194 195 193 205 215 196 191 189 183 182 175 175 191 194 200 210 214 218 222
312 311 313 315 320 323 325 327 329 331 333 332 330 330 330 328 328 330 334 338 337 334 335 338 342 347 353 357 355 353 353 356 357 356 2 11 13 8 1 357 2 12 13 9 6 5 9 13 11 12 19 35 59 104 143 164 187 196 192 183 180 183 185 186 186 185 184 184 195 209 196 191 207 218 206 199 203 203 194 188 188 192 191 195 209 217 222 223
310 309 311 314 319 321 324 326 328 331 334 333 332 332 331 330 330 331 335 339 338 335 334 338 343 347 353 358 356 354 355 360 2 0 2 9 15 16 11 3 1 10 13 11 12 11 15 20 18 20 28 41 59 90 129 173 204 205 192 178 175 175 175 177 180 186 190 196 212 204 189 188 206 217 214 209 212 214 209 206 208 202 191 198 211 219 224 217
307 307 310 314 318 320 322 325 327 331 334 334 333 333 332 331 332 333 336 339 340 337 333 338 345 348 354 358 357 356 358 4 6 5 6 8 14 17 16 10 6 8 10 14 16 16 21 27 28 29 35 45 58 71 86 131 170 189 181 170 173 175 176 174 178 205 213 211 207 186 184 190 205 210 212 216 218 217 216 217 216 209 201 208 218 219 217 207
305 305 309 313 316 318 320 323 327 330 334 335 334 334 333 332 333 334 336 339 343 339 333 339 347 352 357 358 357 357 1 7 10 10 10 11 12 16 17 15 12 10 12 17 20 20 25 30 33 35 36 41 51 60 68 98 129 158 167 170 174 178 186 191 213 247 225 206 188 172 179 191 205 206 210 218 222 220 219 222 220 210 205 212 220 217 215 213
303 303 307 312 315 316 317 321 326 329 334 336 335 335 334 334 334 335 337 339 344 342 334 342 351 356 2 360 357 360 6 11 13 13 14 14 14 15 17 18 16 15 17 20 22 25 29 32 35 38 39 42 53 63 73 97 119 141 154 158 162 172 200 216 236 240 207 189 174 168 177 188 198 204 214 219 222 222 220 222 222 212 208 214 219 217 219 224
301 302 306 310 313 314 316 320 325 329 334 336 336 336 335 335 334 335 337 338 343 344 339 345 352 358 4 2 359 5 13 16 14 14 16 16 16 16 16 18 17 18 21 24 25 29 32 36 38 43 51 57 66 75 87 103 110 118 137 149 148 142 190 197 199 175 158 173 174 179 188 191 191 200 218 220 222 221 219 221 220 216 219 222 224 222 222 225
299 301 304 309 311 313 314 318 324 328 333 336 337 337 336 337 333 334 338 337 343 346 343 347 350 355 2 1 3 11 19 20 16 20 20 17 17 17 18 19 17 17 23 27 30 31 34 39 41 46 58 66 69 76 92 108 110 115 137 153 139 114 151 169 170 151 141 169 184 193 202 204 203 204 219 223 223 220 218 219 217 220 225 226 227 223 219 218
298 299 302 307 309 312 313 317 323 327 332 336 337 338 337 337 334 333 338 339 344 346 342 347 349 353 358 359 6 13 21 23 21 24 25 20 19 19 20 21 17 16 22 28 31 33 35 40 45 48 58 68 71 74 87 101 105 115 137 148 140 141 151 158 158 149 148 166 187 201 212 220 220 215 213 212 215 215 214 213 215 220 220 221 224 217 213 211
296 297 300 304 307 311 313 316 323 327 332 336 337 339 337 338 334 331 339 343 346 347 342 347 352 354 356 359 6 12 22 26 23 24 26 25 24 21 21 19 15 16 22 26 30 33 35 40 48 53 58 67 74 78 85 94 100 111 125 136 143 149 149 146 150 154 160 171 181 195 211 223 224 219 209 198 204 207 209 212 213 217 219 220 219 208 204 205
294 295 298 301 304 309 312 316 323 327 332 335 337 339 337 339 335 332 342 346 346 348 343 346 355 354 351 1 9 14 25 30 27 24 25 28 27 23 22 18 17 22 26 26 28 32 33 37 46 53 57 60 69 80 87 93 101 111 122 134 139 141 142 143 149 159 166 174 178 185 198 210 217 215 208 203 203 204 212 217 213 215 217 211 206 199 196 196
290 293 295 299 303 307 311 316 322 326 331 335 337 337 337 340 337 333 340 346 341 340 339 343 358 356 347 360 10 13 28 32 28 23 22 26 25 24 25 19 18 27 30 28 28 31 33 36 44 51 57 58 61 72 84 96 103 111 120 128 130 132 141 145 150 158 166 171 173 179 186 192 200 205 207 207 205 205 213 218 214 216 205 188 187 187 186 187
286 290 292 296 300 305 309 314 319 324 329 334 336 336 337 339 339 334 333 341 338 331 334 338 355 4 348 358 10 14 27 30 25 22 21 21 20 24 26 18 17 24 28 28 26 28 32 39 44 48 55 59 62 65 74 92 103 109 114 111 112 120 131 141 149 154 159 160 159 169 178 182 185 193 201 203 203 205 212 219 217 217 194 176 177 179 180 184
282 286 290 293 298 303 307 311 317 322 326 332 335 335 336 339 340 335 330 336 334 324 333 339 346 0 356 6 16 18 26 26 19 19 22 21 18 21 24 16 14 18 24 26 22 21 26 33 40 45 50 54 60 63 66 77 89 97 102 102 106 114 123 133 144 148 147 146 143 153 167 175 179 181 188 194 199 200 205 213 210 206 187 173 172 174 179 183
280 284 287 291 296 301 305 309 314 318 323 329 333 333 336 339 339 336 331 334 330 325 338 344 340 350 2 15 23 23 24 22 18 18 22 23 17 15 16 14 14 17 22 24 22 23 27 32 38 43 47 50 55 61 64 66 72 79 86 98 105 111 119 125 133 138 135 129 123 126 140 154 160 162 172 184 191 192 195 197 188 188 180 170 166 166 171 175
279 282 286 290 295 299 303 307 311 316 321 326 331 332 334 337 338 334 327 326 325 324 333 341 340 351 5 14 23 26 21 17 18 18 20 23 18 11 11 13 15 16 18 21 24 29 33 38 42 42 43 45 51 60 64 66 68 75 83 94 102 107 111 114 124 132 128 124 122 116 123 141 148 154 165 177 186 188 186 173 166 168 169 167 165 166 169 174
277 282 285 289 293 297 302 306 309 313 318 324 328 331 332 334 335 332 322 316 317 320 321 326 341 355 3 8 16 20 16 15 16 15 17 20 16 10 10 14 15 11 13 20 25 31 37 42 43 44 49 52 58 63 66 71 75 78 84 91 97 103 107 114 127 134 129 128 126 116 119 137 149 157 162 167 177 177 161 154 154 158 163 167 171 174 172 176
274 280 284 288 292 296 300 305 309 311 316 323 328 330 330 330 331 328 319 308 308 315 307 307 338 353 351 1 9 5 9 17 16 14 16 15 12 9 12 18 19 13 13 21 24 32 42 47 49 52 60 69 74 73 71 73 76 78 81 86 91 97 105 120 132 132 127 129 129 120 121 132 144 156 160 160 164 159 148 151 154 157 164 169 177 182 179 181
272 278 283 288 292 295 299 303 307 311 316 323 328 327 323 323 325 323 315 306 304 308 303 304 334 349 347 358 360 353 3 12 14 16 14 10 10 12 15 21 23 19 19 23 21 27 40 48 52 56 64 72 75 76 76 77 78 80 83 88 93 97 105 121 128 124 121 125 126 121 123 127 137 152 157 156 158 156 152 153 154 159 167 169 173 182 185 188
272 277 282 287 292 296 299 304 307 311 316 323 327 321 315 317 319 317 311 305 303 304 305 309 319 329 345 359 353 351 1 2 4 10 8 6 8 13 18 21 26 26 24 23 18 18 33 45 53 56 60 67 71 72 75 79 81 82 86 96 99 99 105 117 122 122 121 121 120 119 119 122 133 149 154 154 158 160 156 153 154 159 166 167 170 178 184 189
274 277 281 286 292 296 299 304 308 310 316 322 323 314 310 312 313 313 309 303 302 301 300 304 310 325 348 1 353 352 360 354 355 4 5 3 2 10 19 17 23 30 27 24 19 15 29 48 55 57 55 60 64 67 67 65 67 71 82 101 110 105 102 104 114 124 127 125 124 118 113 117 131 148 155 153 156 162 160 156 157 162 165 168 171 174 176 179
275 278 282 286 291 295 299 304 307 309 315 321 318 308 306 308 307 306 306 307 303 296 297 305 317 333 347 355 349 348 354 349 351 3 3 360 356 6 18 15 19 28 29 30 27 22 29 42 50 56 55 53 54 57 55 48 54 68 80 95 107 104 96 97 106 115 123 125 121 116 117 123 133 149 160 161 160 165 167 166 170 172 169 167 171 174 169 169
275 278 283 287 290 294 299 304 307 309 314 318 313 303 302 304 303 301 305 311 300 294 302 309 313 329 340 344 341 341 348 344 346 360 2 356 351 360 16 16 18 28 30 34 36 33 34 32 36 50 50 48 48 49 45 42 56 72 79 89 100 99 96 99 98 98 115 124 121 120 123 128 140 156 167 170 166 163 167 175 183 186 176 169 184 200 188 179
275 278 282 287 291 294 298 303 306 309 311 312 305 298 297 298 300 299 301 305 300 300 312 304 304 319 326 328 333 335 342 338 337 349 357 355 345 351 11 14 18 31 33 34 39 40 39 35 33 39 38 46 56 56 56 63 78 84 80 83 92 92 89 91 96 104 117 118 119 128 131 135 150 163 172 171 163 158 164 173 182 190 186 186 201 209 198 189
275 278 282 287 291 294 298 302 304 306 306 303 297 293 292 292 293 291 291 299 304 303 299 290 295 303 302 307 317 318 325 327 328 334 343 351 341 343 7 13 15 29 30 33 42 44 42 40 40 42 39 40 53 62 72 85 94 91 82 78 81 82 82 87 97 106 107 103 108 125 134 134 137 148 160 163 160 160 164 171 181 192 194 198 209 212 204 198
275 278 281 286 291 294 298 301 302 302 299 294 290 288 288 287 287 286 289 299 305 299 288 280 283 286 291 301 306 304 317 318 313 318 332 344 340 341 6 15 17 25 23 29 46 48 45 40 40 44 44 43 49 62 71 83 88 81 77 79 76 77 85 95 103 101 97 99 107 116 124 123 118 122 133 147 157 158 162 176 189 199 201 203 209 212 210 211
274 277 279 285 291 294 298 301 301 297 291 286 285 283 282 281 282 284 288 295 297 294 290 281 278 282 286 293 301 306 324 322 311 312 324 334 338 343 1 10 16 26 27 32 43 48 48 43 39 40 46 52 64 74 75 80 84 77 77 82 78 80 89 102 114 107 96 106 114 114 121 122 115 117 123 133 148 151 155 176 194 205 207 206 209 213 220 226
273 276 279 284 289 293 296 299 299 292 283 279 280 279 276 276 279 281 284 292 295 291 288 288 286 286 284 284 290 295 303 313 315 316 322 331 339 343 351 5 16 25 30 30 34 44 51 52 49 44 47 59 75 82 79 80 86 83 82 83 77 85 97 106 120 117 100 101 106 105 116 118 110 117 127 127 133 137 141 158 172 182 189 191 194 200 222 223
273 276 279 283 285 287 291 293 293 286 277 274 274 273 272 272 275 277 282 291 293 288 293 303 300 290 279 274 276 283 296 304 302 304 314 328 338 337 331 349 7 14 23 27 31 42 47 49 49 45 46 57 74 83 81 74 68 58 63 92 97 101 109 110 117 126 111 96 97 105 117 121 113 120 129 124 121 123 126 137 141 135 140 148 152 134 109 143
270 275 279 279 281 284 287 288 287 283 276 269 265 266 270 273 276 278 282 285 284 290 304 311 305 294 275 261 265 275 292 296 294 295 299 306 320 320 313 325 349 358 13 32 34 38 38 32 30 35 44 53 74 94 91 74 59 56 71 95 104 110 117 118 117 124 118 94 87 104 116 118 114 117 121 120 120 119 118 123 121 115 119 123 127 119 101 108
267 272 275 275 277 282 285 285 284 282 275 266 263 265 271 277 281 282 284 281 280 291 302 298 295 292 277 265 267 276 282 287 290 292 289 287 287 293 299 309 330 342 352 14 26 31 32 21 7 5 36 51 65 92 93 76 64 77 87 87 90 104 117 120 118 119 119 109 96 99 107 111 111 109 110 114 119 120 120 121 118 116 118 118 118 120 114 113
267 270 273 273 275 278 279 278 274 273 272 268 267 267 269 275 279 282 285 286 287 292 292 288 291 293 285 279 279 281 281 283 286 288 284 281 279 281 290 295 313 340 348 349 358 10 16 20 10 353 15 43 64 92 100 89 76 90 96 73 64 97 119 118 114 114 118 119 114 107 107 112 113 110 109 110 112 116 119 121 120 119 119 120 123 125 125 124
269 269 271 274 276 276 276 274 270 268 271 273 271 265 261 264 269 273 276 279 282 284 285 287 293 300 296 287 283 285 287 287 291 295 286 278 281 283 285 290 301 333 343 343 345 353 1 17 22 4 4 29 73 100 107 96 83 91 96 73 70 103 121 117 113 114 118 123 122 118 121 124 123 120 117 114 113 115 118 120 122 120 119 120 122 124 127 127
268 269 271 275 278 278 277 274 270 267 266 268 268 261 255 256 260 266 269 272 278 280 281 286 293 296 293 287 286 288 286 286 292 298 291 276 274 275 279 289 304 306 319 338 332 323 343 357 1 3 352 353 67 87 94 88 79 87 92 84 89 107 115 111 111 118 124 126 123 122 127 129 124 122 122 123 121 117 116 118 119 119 120 120 121 125 130 131
269 271 273 275 277 276 274 272 268 265 263 262 260 256 255 257 261 266 271 277 286 285 279 281 287 289 284 282 282 281 281 283 286 290 285 273 265 260 264 274 295 305 297 314 312 297 310 318 307 316 300 275 4 54 72 71 63 81 98 97 101 110 114 112 113 123 130 125 119 125 132 133 126 122 122 126 128 124 123 124 122 123 125 126 128 133 137 139
270 274 276 275 273 270 270 271 268 264 262 259 256 254 256 258 259 264 269 274 283 285 278 278 284 287 282 276 273 273 277 282 283 282 278 270 259 248 245 249 266 283 276 274 287 289 282 273 270 271 266 269 290 318 4 33 27 68 112 126 121 116 118 119 121 129 132 121 116 128 135 138 134 130 126 125 127 128 132 137 136 137 137 136 140 142 146 152
271 274 274 273 273 272 272 272 267 262 258 255 253 252 252 255 258 261 265 268 273 278 279 279 282 285 286 283 280 279 280 281 278 275 273 270 262 251 246 245 254 262 262 257 263 275 274 269 263 254 248 256 261 275 323 355 339 51 107 133 132 124 125 127 125 130 134 130 130 139 142 141 139 138 136 133 134 137 144 148 147 145 142 141 144 147 155 163
270 272 272 271 274 276 275 272 266 261 256 253 252 249 248 252 257 256 257 262 267 272 276 278 279 279 283 287 289 287 284 282 277 273 269 268 264 258 254 249 246 250 254 249 245 258 264 262 260 252 236 232 245 255 291 325 295 279 133 160 152 133 134 138 134 137 144 146 155 167 167 159 151 150 150 147 145 145 143 143 144 140 135 136 141 149 161 171
268 269 270 270 274 277 276 271 265 260 256 251 250 248 245 247 250 251 252 255 260 264 271 275 274 273 275 279 284 284 282 280 277 275 272 267 264 259 254 249 246 248 252 248 240 243 249 252 257 255 242 234 241 251 263 263 261 241 158 174 184 149 138 149 152 149 151 162 173 175 184 182 164 158 160 155 147 141 138 140 140 134 131 139 152 167 180 201
268 267 267 270 273 275 273 268 262 258 254 248 245 245 244 244 247 248 250 253 256 261 268 272 271 271 273 276 279 279 278 275 273 272 272 267 262 258 252 247 247 248 250 250 246 244 244 248 255 256 246 241 243 249 258 260 265 262 201 182 189 162 146 151 160 163 163 175 185 174 176 189 176 168 174 162 146 141 138 138 138 140 151 169 189 202 203 217
266 265 267 271 272 271 267 263 260 258 254 248 245 245 245 245 246 248 251 254 257 262 268 271 271 272 275 275 274 275 275 273 270 269 268 263 258 254 250 247 246 245 246 245 243 243 243 246 255 258 252 247 247 248 253 261 271 266 211 185 179 165 157 159 170 183 177 172 183 176 168 181 187 186 191 174 155 151 148 148 156 173 194 205 213 212 207 223
261 262 266 270 271 267 262 259 258 256 253 249 247 246 246 247 248 252 256 258 260 263 268 270 271 272 274 273 271 272 274 273 270 266 263 260 256 255 255 253 248 244 243 242 236 233 232 235 249 260 262 256 253 251 251 252 248 228 150 157 167 162 165 172 177 187 187 182 186 183 177 187 199 204 208 203 189 174 164 163 184 212 229 238 244 246 245 249
257 260 266 269 268 265 261 258 255 253 251 252 251 251 252 253 255 258 261 262 264 265 268 269 270 270 270 272 271 270 270 270 269 268 265 261 258 257 257 255 250 243 239 239 236 233 229 226 235 249 257 260 259 257 256 252 243 237 234 218 195 178 176 182 187 192 195 196 196 196 200 211 219 222 220 211 198 191 187 194 208 221 235 244 251 258 259 259
Height
5839 5837 5836 5835 5833 5832 5831 5829 5828 5826 5825 5824 5823 5821 5820 5819 5817 5815 5813 5811 5809 5807 5805 5804 5801 5798 5795 5792 5789 5786 5782 5779 5775 5771 5767 5763 5759 5754 5749 5744 5739 5734 5728 5723 5719 5715 5711 5707 5703 5699 5697 5696 5695 5695 5695 5697 5698 5700 5704 5707 5711 5714 5716 5718 5720 5721 5724 5727 5733 5739 5742 5746 5753 5758 5764 5770 5771 5774 5778 5781 5785 5788 5792 5795 5798 5801 5804 5807
5837 5836 5835 5833 5832 5830 5829 5828 5826 5825 5824 5822 5821 5820 5818 5817 5815 5813 5811 5809 5808 5806 5804 5802 5800 5797 5794 5791 5787 5784 5781 5777 5773 5770 5765 5761 5757 5751 5746 5741 5736 5730 5725 5721 5717 5713 5709 5705 5701 5697 5694 5693 5692 5692 5693 5695 5697 5699 5702 5704 5707 5710 5712 5713 5716 5720 5724 5730 5734 5736 5739 5745 5751 5757 5764 5767 5766 5767 5772 5777 5781 5784 5788 5791 5793 5796 5800 5803
5836 5835 5833 5832 5831 5829 5828 5826 5825 5823 5822 5821 5819 5818 5816 5815 5813 5812 5809 5808 5807 5805 5803 5801 5799 5796 5793 5789 5786 5783 5779 5776 5772 5768 5763 5759 5755 5749 5744 5740 5734 5728 5723 5719 5715 5711 5708 5704 5699 5695 5692 5691 5690 5691 5692 5693 5695 5697 5699 5701 5704 5707 5709 5712 5716 5719 5723 5728 5731 5733 5738 5745 5750 5756 5760 5761 5763 5765 5768 5774 5778 5781 5784 5787 5790 5794 5797 5800
5834 5833 5832 5831 5829 5828 5826 5825 5823 5822 5821 5819 5818 5817 5815 5813 5811 5810 5808 5806 5805 5803 5801 5800 5797 5794 5791 5788 5785 5781 5778 5774 5770 5766 5762 5757 5752 5748 5743 5737 5731 5726 5721 5717 5714 5710 5706 5702 5698 5694 5691 5690 5690 5690 5691 5692 5694 5695 5697 5699 5702 5706 5708 5711 5714 5717 5720 5724 5728 5731 5736 5743 5749 5753 5755 5756 5761 5766 5768 5772 5776 5780 5782 5785 5788 5791 5794 5796
5833 5832 5831 5829 5828 5827 5825 5824 5822 5821 5819 5818 5817 5815 5814 5812 5810 5808 5807 5805 5803 5802 5800 5798 5796 5793 5790 5786 5783 5780 5777 5773 5769 5765 5760 5755 5751 5747 5741 5735 5730 5725 5720 5716 5713 5709 5705 5702 5698 5694 5691 5689 5689 5690 5690 5691 5693 5694 5696 5698 5701 5705 5707 5710 5713 5716 5719 5723 5727 5731 5734 5740 5745 5750 5752 5753 5758 5764 5767 5769 5772 5776 5780 5784 5787 5789 5790 5793
5831 5830 5829 5828 5827 5825 5824 5822 5821 5820 5818 5817 5815 5814 5812 5810 5808 5807 5805 5803 5802 5800 5799 5797 5794 5791 5788 5784 5781 5778 5775 5771 5768 5763 5758 5754 5750 5745 5739 5734 5729 5724 5720 5716 5712 5708 5705 5701 5698 5694 5691 5689 5689 5690 5690 5691 5693 5694 5696 5699 5701 5704 5707 5709 5713 5716 5720 5723 5727 5730 5734 5738 5743 5747 5749 5751 5756 5761 5765 5767 5769 5772 5776 5781 5784 5785 5787 5790
5830 5829 5828 5827 5826 5824 5823 5821 5820 5818 5817 5815 5814 5813 5811 5809 5807 5805 5803 5802 5800 5799 5797 5795 5793 5790 5786 5783 5779 5776 5773 5769 5766 5762 5757 5753 5748 5743 5738 5734 5729 5724 5720 5715 5711 5708 5704 5702 5699 5695 5692 5690 5690 5691 5691 5692 5694 5696 5698 5699 5701 5704 5707 5710 5713 5716 5720 5724 5727 5731 5735 5737 5740 5744 5746 5750 5754 5757 5764 5769 5769 5772 5777 5781 5782 5783 5785 5787
5828 5828 5827 5826 5824 5823 5822 5820 5819 5817 5816 5814 5813 5811 5810 5808 5806 5804 5802 5800 5799 5798 5796 5794 5792 5788 5785 5782 5778 5775 5772 5768 5765 5761 5757 5751 5746 5741 5737 5734 5729 5724 5720 5715 5711 5708 5705 5702 5699 5697 5694 5692 5691 5692 5692 5693 5695 5696 5697 5699 5702 5705 5707 5710 5713 5716 5719 5723 5727 5731 5734 5735 5737 5741 5745 5748 5750 5754 5761 5765 5767 5772 5776 5778 5780 5781 5782 5783
5827 5826 5825 5825 5823 5822 5821 5819 5818 5816 5815 5813 5811 5810 5808 5806 5804 5803 5801 5799 5798 5796 5795 5793 5790 5787 5784 5781 5777 5774 5771 5767 5764 5761 5757 5750 5744 5741 5737 5733 5729 5725 5720 5715 5711 5709 5706 5703 5700 5698 5695 5694 5693 5693 5693 5694 5695 5696 5697 5700 5703 5705 5708 5711 5714 5716 5719 5723 5727 5730 5733 5734 5735 5739 5743 5746 5748 5750 5754 5756 5762 5769 5771 5774 5778 5779 5780 5782
5826 5825 5824 5823 5822 5821 5820 5818 5817 5815 5814 5812 5810 5808 5807 5805 5803 5801 5800 5798 5797 5795 5794 5792 5789 5787 5783 5780 5777 5774 5770 5767 5763 5759 5756 5750 5744 5741 5737 5733 5729 5725 5720 5716 5713 5710 5707 5704 5702 5699 5697 5696 5695 5695 5695 5696 5696 5697 5699 5701 5704 5707 5709 5712 5715 5717 5720 5724 5728 5731 5733 5734 5735 5737 5740 5743 5746 5748 5751 5753 5758 5764 5767 5771 5776 5778 5781 5782
5824 5824 5823 5822 5821 5820 5819 5817 5816 5814 5812 5811 5809 5807 5805 5804 5802 5800 5799 5797 5795 5794 5793 5791 5788 5785 5782 5779 5776 5773 5770 5766 5762 5758 5755 5750 5745 5741 5737 5733 5730 5726 5722 5719 5715 5711 5708 5705 5703 5700 5698 5697 5697 5697 5698 5699 5699 5699 5700 5703 5706 5709 5711 5714 5717 5719 5722 5725 5729 5731 5733 5734 5736 5737 5739 5742 5745 5748 5751 5752 5755 5759 5764 5769 5773 5777 5781 5782
5823 5822 5822 5821 5820 5819 5818 5816 5815 5813 5811 5810 5808 5806 5804 5802 5801 5799 5797 5796 5794 5793 5792 5790 5788 5785 5782 5779 5776 5773 5769 5766 5762 5759 5755 5749 5745 5742 5738 5735 5731 5728 5725 5721 5716 5712 5709 5706 5704 5702 5700 5699 5699 5699 5700 5701 5701 5702 5704 5707 5709 5711 5714 5717 5719 5721 5724 5726 5728 5730 5732 5736 5738 5738 5740 5743 5745 5748 5751 5753 5755 5759 5763 5767 5770 5775 5779 5781
5821 5821 5820 5820 5819 5818 5817 5815 5814 5812 5811 5809 5807 5805 5803 5801 5799 5798 5796 5795 5793 5792 5790 5789 5787 5784 5781 5778 5776 5773 5770 5765 5762 5759 5755 5750 5746 5743 5740 5737 5734 5731 5727 5722 5717 5714 5711 5708 5706 5703 5702 5701 5701 5701 5701 5702 5703 5705 5707 5710 5712 5714 5716 5718 5720 5723 5724 5725 5726 5727 5730 5736 5739 5740 5742 5744 5747 5750 5752 5754 5757 5760 5764 5767 5770 5773 5777 5779
5820 5819 5819 5819 5818 5817 5815 5814 5813 5811 5810 5808 5806 5804 5802 5800 5798 5797 5795 5794 5792 5791 5789 5788 5787 5784 5781 5778 5776 5774 5770 5766 5762 5759 5755 5751 5748 5746 5743 5739 5736 5732 5727 5723 5719 5716 5713 5711 5708 5706 5704 5703 5703 5703 5704 5704 5706 5708 5710 5712 5714 5716 5718 5719 5720 5722 5723 5724 5724 5724 5729 5736 5739 5741 5744 5746 5749 5751 5753 5755 5758 5762 5765 5768 5770 5773 5776 5778
5818 5818 5817 5817 5816 5815 5814 5813 5812 5810 5809 5807 5805 5803 5801 5799 5797 5796 5794 5792 5791 5790 5788 5787 5786 5784 5781 5778 5777 5774 5770 5765 5762 5760 5756 5753 5750 5747 5744 5740 5736 5733 5729 5725 5721 5718 5715 5713 5710 5708 5706 5705 5705 5706 5706 5707 5708 5710 5712 5715 5717 5719 5720 5721 5721 5722 5723 5723 5723 5725 5731 5735 5739 5742 5745 5747 5750 5751 5754 5756 5759 5762 5766 5769 5771 5773 5776 5777
5817 5816 5816 5816 5815 5814 5813 5812 5811 5809 5808 5806 5804 5802 5800 5798 5796 5795 5793 5791 5790 5789 5787 5786 5786 5784 5782 5780 5778 5775 5770 5766 5764 5761 5758 5755 5751 5748 5745 5741 5737 5734 5731 5727 5723 5720 5717 5715 5712 5711 5709 5708 5708 5708 5708 5710 5711 5713 5715 5717 5719 5720 5721 5722 5723 5724 5724 5724 5725 5728 5732 5735 5739 5743 5746 5748 5750 5752 5755 5758 5760 5762 5766 5768 5771 5774 5776 5777
5815 5815 5815 5814 5814 5813 5812 5811 5810 5808 5807 5805 5803 5801 5799 5797 5795 5794 5792 5791 5789 5788 5787 5786 5785 5783 5782 5780 5778 5775 5770 5766 5765 5762 5758 5755 5752 5749 5746 5742 5739 5737 5733 5729 5726 5723 5719 5717 5715 5714 5712 5712 5712 5711 5711 5712 5714 5715 5717 5719 5720 5721 5722 5724 5725 5725 5725 5726 5728 5730 5733 5736 5739 5743 5747 5749 5751 5753 5755 5758 5760 5763 5765 5767 5769 5772 5775 5776
5814 5813 5813 5813 5812 5812 5811 5810 5808 5807 5806 5804 5802 5801 5799 5797 5794 5792 5791 5790 5788 5787 5786 5785 5784 5782 5781 5779 5777 5773 5768 5765 5763 5761 5759 5756 5753 5750 5747 5744 5742 5739 5735 5731 5728 5725 5722 5720 5718 5717 5716 5715 5715 5715 5715 5715 5716 5717 5719 5720 5721 5722 5724 5725 5726 5726 5727 5728 5730 5732 5735 5737 5740 5744 5748 5750 5752 5753 5755 5757 5761 5763 5764 5765 5767 5770 5773 5776
5813 5812 5812 5811 5811 5810 5809 5808 5807 5806 5805 5803 5801 5800 5798 5796 5793 5791 5791 5789 5788 5786 5785 5785 5783 5781 5780 5778 5775 5772 5767 5764 5762 5761 5759 5757 5754 5751 5748 5746 5744 5741 5738 5734 5731 5728 5726 5724 5721 5720 5719 5718 5718 5718 5718 5719 5719 5720 5721 5722 5723 5724 5725 5726 5726 5727 5728 5730 5732 5734 5736 5738 5741 5745 5749 5751 5752 5753 5754 5757 5760 5762 5763 5764 5767 5769 5773 5776
5811 5811 5810 5810 5810 5809 5808 5807 5806 5805 5804 5802 5800 5799 5797 5795 5793 5790 5789 5788 5787 5786 5785 5784 5782 5780 5779 5777 5775 5773 5767 5764 5763 5761 5760 5758 5755 5753 5750 5748 5746 5743 5739 5736 5734 5731 5729 5727 5725 5723 5722 5721 5721 5721 5721 5721 5722 5722 5723 5724 5725 5725 5726 5726 5727 5728 5730 5731 5734 5736 5737 5739 5742 5746 5749 5750 5752 5753 5755 5757 5759 5761 5762 5763 5767 5770 5773 5775
5810 5809 5809 5808 5808 5808 5807 5806 5805 5804 5802 5801 5799 5798 5796 5794 5792 5789 5789 5788 5786 5785 5784 5783 5782 5780 5779 5777 5775 5772 5767 5763 5763 5762 5760 5757 5756 5754 5752 5751 5748 5744 5741 5738 5736 5735 5732 5730 5728 5726 5724 5724 5724 5724 5724 5723 5723 5724 5724 5725 5725 5726 5726 5727 5728 5729 5731 5732 5734 5736 5738 5740 5743 5746 5748 5749 5751 5754 5755 5757 5759 5761 5761 5762 5766 5770 5772 5774
5808 5808 5807 5807 5806 5806 5805 5804 5803 5802 5801 5800 5798 5797 5795 5794 5792 5790 5788 5788 5786 5785 5783 5782 5782 5781 5779 5777 5774 5771 5766 5763 5763 5763 5760 5757 5756 5754 5753 5753 5750 5745 5742 5739 5738 5737 5735 5733 5730 5728 5726 5726 5725 5725 5726 5725 5725 5725 5725 5726 5726 5726 5727 5728 5729 5730 5732 5734 5735 5737 5739 5741 5743 5745 5747 5749 5752 5754 5756 5757 5759 5761 5762 5764 5766 5769 5772 5775
5806 5806 5806 5805 5805 5804 5804 5803 5802 5801 5800 5799 5797 5796 5795 5793 5791 5789 5787 5786 5785 5784 5783 5781 5780 5780 5779 5775 5772 5768 5765 5764 5765 5764 5761 5757 5756 5755 5754 5753 5750 5746 5744 5741 5740 5739 5737 5735 5733 5731 5729 5728 5727 5727 5727 5727 5727 5726 5726 5727 5727 5727 5728 5729 5730 5731 5733 5735 5736 5738 5740 5742 5743 5744 5746 5749 5752 5754 5756 5757 5758 5760 5763 5765 5767 5770 5774 5777
5805 5805 5804 5803 5803 5803 5802 5801 5800 5799 5799 5798 5796 5795 5794 5792 5790 5788 5786 5785 5784 5783 5782 5781 5778 5778 5776 5773 5771 5769 5767 5767 5767 5764 5761 5759 5757 5756 5755 5754 5751 5748 5745 5743 5743 5741 5739 5737 5735 5734 5732 5731 5730 5729 5728 5728 5728 5728 5729 5729 5729 5729 5730 5731 5732 5733 5734 5736 5737 5739 5740 5742 5743 5745 5747 5749 5751 5753 5756 5756 5757 5760 5763 5766 5768 5771 5773 5776
5803 5803 5802 5802 5801 5801 5800 5800 5799 5798 5797 5796 5795 5794 5793 5792 5790 5787 5786 5785 5784 5782 5781 5780 5778 5776 5774 5772 5772 5771 5769 5769 5767 5765 5763 5761 5759 5757 5755 5754 5751 5749 5747 5745 5744 5743 5741 5738 5737 5736 5734 5733 5732 5731 5730 5730 5730 5731 5731 5731 5731 5731 5732 5733 5734 5735 5736 5737 5739 5740 5741 5743 5744 5746 5747 5749 5751 5753 5755 5755 5756 5760 5763 5766 5768 5770 5771 5773
5801 5801 5801 5800 5800 5799 5799 5798 5797 5797 5796 5795 5794 5793 5792 5791 5789 5787 5786 5784 5784 5782 5781 5779 5778 5776 5774 5774 5773 5772 5772 5770 5767 5766 5764 5762 5761 5758 5756 5754 5752 5750 5749 5747 5745 5745 5743 5741 5739 5738 5736 5735 5735 5735 5734 5733 5733 5733 5733 5733 5733 5734 5734 5735 5736 5737 5738 5739 5741 5741 5742 5744 5745 5747 5749 5750 5752 5754 5754 5755 5757 5760 5763 5765 5768 5770 5770 5772
5800 5800 5799 5799 5798 5797 5797 5797 5796 5795 5794 5794 5793 5792 5791 5789 5788 5787 5785 5784 5783 5782 5780 5779 5778 5776 5775 5774 5773 5773 5773 5771 5769 5767 5765 5763 5762 5760 5757 5755 5753 5751 5750 5748 5746 5746 5745 5744 5742 5741 5740 5739 5738 5737 5737 5736 5735 5735 5735 5736 5736 5736 5736 5737 5738 5739 5740 5742 5743 5743 5744 5746 5747 5749 5750 5751 5752 5753 5753 5755 5758 5760 5763 5765 5767 5769 5770 5772
5798 5798 5798 5797 5796 5796 5795 5795 5794 5793 5793 5793 5792 5791 5789 5788 5787 5785 5784 5783 5782 5781 5779 5778 5777 5776 5775 5774 5773 5773 5771 5770 5769 5767 5765 5764 5763 5761 5759 5757 5755 5753 5751 5749 5748 5747 5747 5746 5744 5743 5742 5741 5740 5739 5739 5738 5738 5737 5737 5737 5737 5738 5738 5739 5740 5741 5742 5743 5744 5744 5746 5747 5748 5749 5750 5750 5752 5753 5754 5755 5757 5760 5762 5764 5767 5769 5771 5772
5796 5796 5796 5795 5795 5794 5794 5793 5793 5792 5791 5791 5791 5789 5788 5787 5785 5784 5783 5782 5781 5780 5778 5777 5776 5776 5775 5773 5773 5772 5770 5768 5768 5767 5766 5765 5764 5762 5761 5759 5757 5755 5752 5751 5749 5748 5747 5746 5746 5745 5744 5743 5741 5741 5741 5741 5740 5740 5740 5740 5740 5740 5740 5740 5741 5743 5744 5744 5745 5745 5746 5747 5748 5750 5751 5751 5753 5754 5755 5756 5758 5760 5762 5765 5767 5769 5771 5773
5794 5794 5794 5794 5793 5792 5792 5792 5791 5790 5790 5790 5789 5788 5786 5785 5784 5783 5782 5780 5780 5779 5778 5777 5776 5775 5774 5773 5772 5771 5770 5769 5768 5768 5767 5766 5765 5763 5762 5760 5757 5755 5754 5753 5751 5749 5747 5747 5747 5746 5745 5744 5743 5743 5743 5743 5742 5742 5742 5742 5742 5742 5742 5742 5743 5744 5745 5745 5745 5746 5747 5748 5749 5751 5752 5752 5754 5756 5757 5758 5760 5762 5763 5766 5768 5769 5772 5775
5792 5792 5792 5792 5791 5791 5790 5790 5789 5789 5788 5788 5787 5786 5785 5784 5783 5782 5781 5780 5779 5778 5777 5776 5775 5774 5773 5773 5772 5771 5771 5770 5769 5768 5767 5767 5766 5764 5762 5761 5758 5756 5756 5754 5752 5749 5748 5748 5748 5747 5746 5746 5745 5745 5744 5744 5743 5743 5743 5743 5743 5743 5743 5744 5744 5745 5745 5746 5746 5747 5748 5748 5750 5751 5752 5753 5754 5756 5759 5761 5762 5764 5766 5768 5770 5770 5772 5775
5790 5790 5790 5790 5789 5789 5789 5788 5787 5787 5786 5786 5785 5784 5783 5782 5781 5780 5779 5779 5777 5777 5777 5776 5775 5774 5773 5773 5773 5772 5771 5770 5769 5769 5768 5767 5766 5765 5763 5762 5760 5758 5757 5755 5753 5751 5749 5748 5749 5749 5748 5747 5746 5746 5745 5745 5744 5744 5744 5744 5744 5744 5744 5745 5745 5746 5746 5747 5747 5748 5749 5750 5750 5751 5752 5754 5756 5758 5761 5762 5764 5765 5766 5769 5769 5769 5771 5773
5788 5788 5788 5787 5787 5787 5787 5786 5786 5785 5785 5784 5784 5782 5781 5781 5779 5778 5778 5777 5776 5776 5776 5775 5774 5774 5773 5772 5772 5772 5771 5770 5769 5769 5768 5767 5766 5765 5764 5763 5762 5760 5758 5756 5754 5753 5751 5750 5749 5749 5749 5749 5748 5747 5747 5746 5745 5745 5745 5745 5745 5745 5745 5745 5746 5746 5747 5747 5748 5749 5750 5750 5751 5752 5753 5756 5758 5760 5762 5762 5763 5764 5766 5769 5769 5769 5771 5773
5786 5786 5785 5785 5785 5785 5785 5785 5784 5784 5783 5783 5782 5781 5780 5779 5778 5776 5776 5776 5775 5775 5775 5774 5773 5773 5772 5772 5772 5771 5771 5770 5769 5768 5768 5767 5766 5764 5764 5764 5763 5761 5759 5757 5755 5754 5753 5752 5750 5750 5749 5749 5749 5748 5748 5747 5747 5747 5746 5746 5746 5746 5746 5746 5747 5747 5747 5748 5748 5749 5750 5751 5752 5753 5755 5757 5760 5762 5763 5763 5763 5763 5766 5768 5769 5769 5771 5773
5784 5784 5783 5783 5783 5783 5783 5783 5782 5782 5781 5781 5780 5779 5778 5777 5776 5775 5774 5775 5774 5773 5773 5772 5772 5771 5771 5770 5770 5771 5771 5770 5769 5768 5768 5767 5766 5766 5765 5765 5764 5763 5761 5759 5757 5755 5754 5753 5752 5751 5750 5749 5749 5749 5749 5748 5748 5748 5748 5748 5748 5747 5747 5748 5748 5748 5748 5749 5749 5750 5751 5752 5752 5754 5756 5759 5760 5762 5763 5764 5763 5763 5765 5767 5768 5769 5770 5773
5782 5781 5781 5781 5781 5781 5781 5781 5781 5780 5779 5779 5778 5778 5776 5775 5774 5773 5773 5773 5772 5772 5771 5771 5770 5770 5770 5769 5769 5769 5770 5770 5769 5768 5768 5767 5767 5766 5766 5765 5764 5764 5762 5761 5759 5756 5755 5755 5754 5753 5751 5750 5750 5750 5750 5750 5749 5749 5749 5749 5749 5749 5749 5749 5750 5750 5749 5749 5750 5751 5751 5753 5754 5755 5757 5759 5760 5762 5763 5764 5763 5763 5764 5766 5768 5769 5771 5772
5779 5779 5779 5779 5779 5779 5779 5779 5779 5778 5777 5777 5777 5776 5774 5773 5772 5772 5771 5771 5770 5770 5770 5770 5769 5769 5769 5768 5767 5768 5769 5769 5769 5768 5768 5768 5767 5766 5766 5764 5765 5764 5763 5762 5761 5758 5757 5757 5756 5754 5753 5752 5751 5751 5751 5751 5751 5751 5751 5751 5751 5751 5751 5751 5752 5752 5751 5751 5751 5752 5753 5754 5754 5755 5757 5759 5761 5762 5763 5763 5763 5763 5764 5766 5767 5769 5770 5770
5777 5777 5776 5777 5776 5776 5777 5777 5777 5776 5775 5775 5775 5773 5771 5771 5770 5770 5769 5769 5768 5768 5769 5769 5768 5768 5768 5767 5766 5767 5768 5768 5767 5767 5768 5768 5767 5766 5766 5765 5765 5765 5763 5763 5762 5760 5758 5758 5757 5756 5755 5754 5753 5753 5752 5753 5753 5752 5752 5752 5752 5752 5752 5753 5753 5753 5753 5753 5753 5754 5754 5755 5755 5756 5757 5760 5761 5762 5763 5763 5763 5763 5764 5766 5767 5767 5768 5769
5775 5775 5774 5774 5774 5774 5774 5775 5775 5774 5773 5772 5772 5771 5769 5769 5769 5768 5767 5767 5766 5766 5767 5767 5767 5767 5766 5766 5765 5766 5767 5767 5766 5766 5766 5767 5767 5766 5765 5765 5765 5764 5763 5763 5762 5761 5760 5760 5759 5758 5757 5756 5755 5754 5754 5754 5754 5754 5753 5753 5754 5754 5754 5754 5755 5755 5755 5756 5756 5756 5756 5757 5757 5758 5759 5760 5762 5763 5763 5764 5764 5764 5765 5766 5766 5767 5768 5769
5773 5772 5772 5772 5772 5772 5772 5772 5772 5772 5771 5770 5770 5770 5769 5768 5768 5767 5765 5764 5765 5765 5765 5766 5766 5765 5765 5765 5765 5765 5766 5765 5765 5765 5765 5765 5766 5765 5764 5764 5764 5764 5763 5762 5762 5762 5761 5761 5760 5759 5758 5757 5757 5756 5756 5756 5756 5756 5755 5755 5755 5755 5755 5756 5756 5756 5756 5757 5758 5758 5758 5758 5758 5759 5760 5761 5763 5763 5764 5765 5766 5766 5767 5767 5768 5769 5770 5770
5770 5770 5769 5769 5770 5770 5770 5770 5770 5770 5769 5768 5768 5769 5769 5767 5765 5765 5764 5763 5764 5764 5763 5763 5764 5764 5764 5764 5764 5764 5764 5763 5763 5764 5764 5764 5765 5765 5764 5763 5763 5762 5762 5762 5762 5762 5761 5761 5760 5760 5760 5759 5758 5757 5757 5757 5757 5757 5757 5757 5756 5756 5756 5757 5757 5758 5758 5758 5759 5760 5760 5760 5760 5760 5761 5762 5763 5764 5765 5766 5767 5768 5768 5769 5770 5771 5771 5772
5767 5767 5767 5766 5767 5768 5767 5767 5768 5767 5767 5767 5767 5767 5767 5765 5763 5762 5762 5762 5762 5762 5761 5761 5762 5763 5763 5763 5763 5763 5763 5762 5762 5762 5763 5763 5763 5764 5763 5763 5763 5762 5761 5762 5762 5762 5762 5761 5761 5761 5760 5760 5759 5758 5758 5758 5758 5758 5758 5758 5757 5757 5758 5758 5758 5759 5760 5760 5760 5761 5762 5762 5762 5762 5763 5763 5764 5765 5766 5768 5768 5769 5770 5771 5771 5772 5773 5773
5764 5764 5765 5764 5764 5764 5764 5764 5765 5765 5765 5765 5765 5764 5763 5762 5761 5760 5760 5761 5762 5761 5760 5760 5761 5762 5762 5762 5762 5762 5762 5761 5761 5761 5762 5762 5762 5763 5762 5762 5763 5763 5761 5761 5762 5762 5762 5762 5762 5761 5761 5760 5759 5759 5759 5759 5759 5759 5759 5760 5759 5758 5759 5760 5759 5760 5761 5761 5761 5762 5763 5764 5764 5765 5765 5765 5766 5767 5768 5769 5770 5770 5771 5772 5772 5773 5774 5774
5761 5762 5762 5762 5762 5761 5761 5761 5762 5762 5763 5763 5763 5761 5760 5759 5759 5759 5759 5760 5761 5760 5758 5758 5760 5761 5761 5760 5760 5760 5760 5760 5760 5760 5760 5761 5761 5761 5761 5762 5762 5762 5761 5761 5761 5761 5761 5761 5761 5761 5761 5760 5760 5760 5759 5759 5760 5760 5760 5760 5760 5759 5760 5760 5761 5761 5762 5762 5762 5762 5764 5765 5765 5766 5766 5767 5768 5769 5769 5771 5771 5771 5772 5773 5773 5774 5774 5775
5758 5759 5759 5759 5759 5758 5757 5758 5759 5760 5760 5760 5760 5759 5758 5757 5757 5758 5759 5759 5759 5758 5756 5757 5758 5758 5758 5759 5759 5759 5759 5759 5759 5759 5759 5759 5759 5760 5760 5761 5761 5761 5761 5761 5761 5760 5760 5760 5760 5761 5761 5761 5761 5760 5760 5760 5760 5760 5760 5761 5761 5760 5760 5761 5761 5761 5762 5763 5763 5763 5765 5766 5766 5767 5767 5768 5768 5769 5770 5772 5772 5772 5773 5773 5774 5774 5775 5775
5755 5756 5757 5756 5755 5755 5755 5756 5756 5756 5756 5756 5756 5757 5755 5754 5755 5757 5757 5756 5757 5756 5755 5755 5756 5756 5756 5757 5757 5758 5757 5757 5757 5757 5757 5757 5758 5758 5758 5759 5760 5759 5759 5760 5760 5760 5759 5759 5759 5760 5761 5761 5761 5761 5761 5761 5760 5761 5761 5762 5762 5761 5761 5761 5761 5762 5762 5763 5764 5764 5765 5766 5767 5768 5768 5768 5769 5770 5771 5772 5772 5773 5773 5773 5774 5774 5775 5775
5752 5753 5754 5753 5752 5752 5752 5753 5752 5752 5752 5752 5753 5753 5753 5752 5754 5755 5755 5754 5754 5754 5753 5754 5755 5755 5755 5756 5756 5756 5756 5755 5755 5755 5755 5756 5756 5756 5757 5757 5757 5757 5758 5759 5759 5759 5758 5758 5757 5758 5760 5760 5760 5761 5761 5762 5761 5761 5762 5762 5762 5761 5761 5762 5762 5763 5763 5763 5764 5764 5765 5766 5767 5768 5769 5769 5770 5771 5771 5772 5772 5772 5773 5773 5773 5774 5774 5775
5750 5751 5751 5750 5749 5749 5749 5749 5749 5748 5749 5750 5750 5750 5750 5750 5751 5752 5752 5751 5751 5752 5752 5753 5754 5753 5753 5754 5754 5754 5754 5754 5754 5754 5754 5754 5754 5754 5755 5755 5756 5756 5757 5758 5758 5758 5758 5756 5755 5756 5758 5759 5759 5759 5760 5761 5762 5762 5761 5762 5762 5762 5762 5762 5763 5763 5764 5764 5764 5764 5765 5766 5767 5768 5769 5770 5771 5771 5771 5771 5771 5772 5772 5772 5772 5773 5773 5774
5747 5747 5747 5747 5747 5746 5745 5745 5745 5745 5746 5747 5747 5747 5747 5748 5748 5749 5749 5749 5749 5750 5751 5751 5751 5752 5752 5752 5752 5752 5752 5752 5752 5752 5752 5752 5752 5752 5753 5753 5754 5755 5756 5756 5757 5757 5757 5756 5755 5755 5757 5757 5757 5758 5759 5759 5760 5761 5761 5761 5762 5762 5762 5762 5763 5763 5764 5764 5764 5764 5765 5766 5767 5767 5768 5769 5770 5771 5771 5771 5771 5771 5771 5771 5772 5772 5773 5773
5744 5744 5744 5744 5744 5743 5742 5741 5742 5743 5744 5744 5744 5745 5745 5745 5746 5747 5747 5747 5747 5749 5749 5749 5749 5750 5750 5751 5751 5750 5750 5750 5751 5751 5751 5751 5750 5750 5751 5752 5752 5753 5754 5755 5756 5756 5756 5756 5755 5755 5756 5756 5756 5756 5757 5758 5759 5760 5760 5761 5761 5762 5762 5762 5763 5763 5764 5764 5764 5765 5765 5766 5766 5767 5767 5768 5769 5770 5770 5771 5771 5771 5771 5771 5771 5771 5772 5772
5741 5741 5741 5741 5740 5740 5739 5738 5739 5741 5742 5742 5742 5743 5743 5743 5744 5745 5745 5745 5745 5746 5747 5746 5747 5747 5748 5748 5749 5749 5749 5749 5749 5749 5749 5749 5749 5749 5750 5750 5751 5751 5752 5752 5753 5754 5754 5754 5754 5754 5756 5756 5756 5756 5757 5757 5758 5759 5759 5760 5761 5761 5761 5762 5762 5763 5763 5763 5764 5764 5765 5766 5766 5767 5767 5768 5769 5769 5770 5770 5771 5770 5770 5770 5770 5770 5770 5770
5738 5738 5738 5737 5737 5736 5736 5736 5738 5739 5739 5739 5740 5740 5741 5742 5743 5744 5743 5742 5743 5744 5745 5744 5744 5745 5746 5746 5746 5747 5747 5747 5747 5747 5747 5747 5747 5747 5748 5749 5749 5749 5750 5751 5751 5751 5752 5752 5752 5752 5754 5755 5755 5755 5756 5757 5757 5758 5759 5760 5760 5760 5761 5761 5762 5762 5762 5763 5763 5764 5765 5765 5766 5766 5767 5767 5768 5769 5770 5770 5770 5769 5769 5769 5769 5769 5768 5768